DMSP 5D-2 F13 DEB, 40416

Orbit data source: Space-Track

DMSP 5D-2 F13 DEB, 40416 is space debris in SSO originally from a launch on Fri, 24 Mar 1995 UTC launched from the Air Force Western Test Range (AFWTR). Debris objects in space refer to the collection of defunct objects orbiting the Earth. Examples of debris include non-operational satellites, rocket bodies, and fragments generated from explosions, collisions, or faulty payload assembly.

Loading next visibility...
Identifier
40416, 1995-015AD
Orbit
SSO
Country
Flag of USUS
Related business
Manufacturer
Unknown
Mission
Spacecraft
Bus & Motor
Unknown
Mass
Unknown
Launch date (UTC)
1995-03-24 (31 years ago)
Launch vehicle
Unknown
Launch site
Air Force Western Test Range (AFWTR)
Object type
Payload
Rocket body
Debris
Shape & HBR
Unknown shape, 0.1 m
Radar Cross Section
Small (<0.1 m²)

Expand to show TLE details & history
Last TLE update: 1 day ago

TLE from 1 day ago
0 DMSP 5D-2 F13 DEB
1 40416U 95015AD  25300.99213361  .00003017  00000-0  12571-2 0  9998
2 40416  98.7587 321.9075 0005645  60.2182 299.9559 14.27034184552629
Epoch: 2025-10-27T23:48Z
TLE epoch observation values (Epoch: 2025-10-27T23:48:40.343Z)
Latitude
-0.00005°
Longitude
-71.84661°
Altitude
802.562 km
Speed
7.453 km/s
True Right ascension
21h 27m 37s
True Declination
0° 00' 00"
Sunlit
Object was in daylight at epoch
Visualization orbit readout
Latitude
Unknown
Longitude
Unknown
Altitude
Unknown
Speed
Unknown
Apparent Right ascension
Unknown
Apparent Declination
Unknown
Sunlit
N/A
Visualization observer readout
Local Sidereal Time
06:17:53
Azimuth
Unknown
Elevation
Unknown
Doppler factor
Unknown
Orbital elements
Apogee altitude
802.864 km
Perigee altitude
794.762 km
Semi-major axis
7,176.95 km
Eccentricity
0.00056
Inclination
98.7587°
RAAN
321.9075°
Arg. of periapsis
60.2182°
True anomaly
299.89983°
Mean anomaly
299.9559°
Eccentric anomaly
299.92787°
Mean motion
3.56971 °/min
Orbital period
100.85 mins
BSTAR
0.0012571
Loading maneuver chart data...
Computing Atmospheric mass density...

Documentation

Showing up to 5 results
|